Flag for Switzerland Weather past 2 weeks in Grenchen, Solothurn, Switzerland

Now
55 °F

Cool.


Feels Like: 55 °F
Forecast: 52 / 76 °F
Wind: 1 mph from North

Location: Grenchen

Current Time: Sep 17, 2014 at 2:18:06 AM

Latest Report: Sep 17, 2014 at 1:00 AM


Visibility: N/A

Pressure: 29.95 "Hg

Humidity: 93%

Dew point: 53 °F

Location of GrenchenLocation

Historic Weather in Grenchen — Graph

°F

Grenchen temperature yesterday

Maximum temperature yesterday: 76 °F (at 4:00 PM)
Minimum temperature yesterday: 49 °F (at 7:00 AM)
Average temperature yesterday: 63 °F

Past Weeks' High & Low Weather Summary

 TemperatureHumidityPressure
High79 °F (Sep 7, 5:00 PM)100% (Sep 6, 6:00 AM)30.17 "Hg (Sep 6, 6:00 AM)
Low48 °F (Sep 2, 5:00 AM)42% (Sep 16, 5:00 PM)29.84 "Hg (Sep 6, 5:00 PM)
Average62 °F79%30.01 "Hg
* Reported Sep 2 1:00 AM — Sep 17 1:00 AM, Grenchen, Weather by CustomWeather, © 2014

Note: Actual official high and low records may vary slightly from our data, if they occured in-between our weather recording intervals... More about our weather records

Advertising

Grenchen weather history for previous 24 hours

 ConditionsComfort  
Time TempWeatherWind HumidityBarometerVisibility
1:00 AM
Sep 17
55 °FCool.1 mph93%29.95 "HgN/A
12:00 AM57 °FCool.1 mph92%29.94 "HgN/A
11:00 PM
Sep 16
58 °FCool.3 mph90%29.95 "HgN/A
10:00 PM59 °FCool.3 mph85%29.94 "HgN/A
9:00 PM61 °FCool.3 mph83%29.93 "HgN/A
8:00 PM67 °FMild.5 mph68%29.91 "HgN/A
7:00 PM74 °FMild.5 mph52%29.88 "HgN/A
6:00 PM76 °FMild.3 mph46%29.88 "HgN/A
5:00 PM76 °FMild.2 mph42%29.88 "HgN/A
4:00 PM76 °FMild.2 mph44%29.89 "HgN/A
3:00 PM76 °FMild.2 mph47%29.90 "HgN/A
2:00 PM73 °FMild.3 mph56%29.92 "HgN/A
1:00 PM71 °FMild.1 mph60%29.95 "HgN/A
12:00 PM67 °FMild.1 mph66%29.97 "HgN/A
11:00 AM65 °FMild.2 mph68%30.00 "HgN/A
10:00 AM61 °FCool.1 mph77%30.01 "HgN/A
9:00 AM56 °FCool.No wind91%30.03 "HgN/A
8:00 AM51 °FCool.2 mph98%30.04 "HgN/A
7:00 AM49 °FCool.2 mph98%30.04 "HgN/A
6:00 AM50 °FCool.1 mph95%30.03 "HgN/A
5:00 AM53 °FCool.1 mph95%30.02 "HgN/A
4:00 AM53 °FCool.2 mph92%30.02 "HgN/A
3:00 AM56 °FCool.3 mph90%30.01 "HgN/A
2:00 AM57 °FCool.2 mph86%30.01 "HgN/A
Weather by CustomWeather, © 2014

See weather overviewHow to use our weather pages